[[{"header":{"parameterUnit":"m.s-1","parameterCategory":1,"la1":30.2992,"la2":30.254,"lo1":-89.0895,"lo2":-89.0443,"dy":0.0025,"dx":0.0025,"nx":19,"ny":19,"refTime":"2026-05-18T09:00:00:Z","depth":0,"parameterNumber":2,"parameterNumberName":"U-component_of_WINDS"},"data":[0,0,0,-2.4302,-2.4304,-2.4355,-2.4355,-2.4438,-2.4438,0,0,0,0,0,0,0,0,0,0,0,-2.4296,-2.4297,-2.4302,-2.4304,-2.4355,-2.4355,-2.4437,-2.4438,0,0,0,0,0,0,0,0,0,0,0,-2.4295,-2.4296,-2.4298,-2.4304,-2.4355,-2.4355,-2.4437,-2.4393,0,0,0,0,0,0,0,0,0,0,-2.434,-2.4342,-2.4296,-2.4298,-2.4304,-2.4355,-2.4356,-2.439,-2.4396,-2.4421,0,-2.4445,0,-2.4443,-2.4445,-2.4445,0,0,0,-2.4297,-2.4338,-2.4344,-2.4298,-2.4305,-2.4355,-2.433,-2.4393,-2.4399,-2.4428,-2.4446,-2.4449,-2.4444,-2.4446,-2.4446,-2.4612,-2.4613,0,0,-2.4294,-2.431,-2.434,-2.4348,-2.434,-2.4329,-2.4332,-2.4396,-2.4417,-2.4446,-2.445,-2.4446,-2.4446,-2.4447,-2.4611,-2.4613,0,0,0,-2.4291,-2.4308,-2.4312,-2.4345,-2.4353,-2.433,-2.4334,-2.4415,-2.4414,-2.4451,-2.4447,-2.4447,-2.4448,-2.461,-2.4612,-2.468,0,0,0,-2.4289,-2.4306,-2.4311,-2.4321,-2.4352,-2.4384,-2.4351,-2.441,-2.4417,-2.4446,-2.4447,-2.4449,-2.4609,-2.4611,-2.4675,-2.471,0,0,0,-2.4289,-2.4306,-2.4316,-2.4322,-2.4345,-2.4383,-2.4386,-2.4411,-2.4415,-2.4445,-2.4449,-2.4608,-2.461,-2.4671,-2.4703,-2.4758,0,0,0,-2.4295,-2.4376,-2.4318,-2.4407,-2.4345,-2.4425,-2.4386,-2.4445,-2.4479,-2.4447,-2.4609,-2.4612,-2.467,-2.4699,-2.4754,-2.4807,-2.4831,0,0,-2.4406,-2.439,-2.4442,-2.4391,-2.4485,-2.4416,-2.4521,-2.4537,-2.4526,-2.4585,-2.4588,-2.4677,-2.4703,-2.4757,-2.4958,-2.4977,0,0,0,-2.4483,-2.452,-2.4541,-2.4575,-2.459,-2.4605,-2.4605,-2.4611,-2.466,-2.4559,-2.4711,-2.4726,-2.4758,-2.4782,-2.4798,-2.4824,-2.4624,-2.4623,-2.4623,-2.4662,-2.4644,-2.4728,-2.4716,-2.4749,-2.4748,-2.4773,-2.4782,-2.4753,-2.479,-2.4807,-2.4931,-2.496,-2.4972,-2.5,-2.4833,-2.4834,-2.4834,-2.4834,-2.4824,-2.4874,-2.4835,-2.4902,-2.4882,-2.4939,-2.4942,-2.492,-2.4971,-2.4916,-2.4943,-2.4885,-2.4993,-2.5017,-2.4839,-2.4838,-2.4838,-2.4837,-2.4837,-2.494,-2.496,-2.4967,-2.5014,-2.5052,-2.5038,-2.5088,-2.5068,-2.505,-2.5077,-2.5093,-2.5092,-2.5088,-2.5086,-2.5086,-2.5087,-2.5087,-2.5088,-2.5088,-2.5057,-2.5062,-2.5106,-2.513,-2.5149,-2.5172,-2.5173,-2.5191,-2.5207,-2.5189,-2.5189,-2.5158,-2.5007,-2.497,-2.5094,-2.5093,-2.5092,-2.5092,-2.5091,-2.5228,-2.5186,-2.5255,-2.5274,-2.53,-2.534,-2.5315,-2.5355,-2.5368,-2.5394,-2.5357,-2.5249,-2.5231,-2.5218,-2.5187,-2.536,-2.536,-2.536,-2.536,-2.5325,-2.5314,-2.538,-2.5413,-2.5442,-2.5427,-2.5506,-2.5508,-2.5504,-2.5511,-2.5483,-2.544,-2.5428,-2.5417,-2.54,-2.5371,-2.5587,-2.5587,-2.5587,-2.5429,-2.542,-2.5491,-2.5485,-2.5505,-2.5522,-2.5597,-2.5636,-2.5623,-2.5596,-2.5516,-2.5506,-2.5437,-2.5415,-2.5386,-2.536,-2.5306,0,0]},{"header":{"parameterUnit":"m.s-1","parameterCategory":1,"la1":30.2992,"la2":30.254,"lo1":-89.0895,"lo2":-89.0443,"dy":0.0025,"dx":0.0025,"nx":19,"ny":19,"refTime":"2026-05-18T09:00:00:Z","depth":0,"parameterNumber":3,"parameterNumberName":"V-component_of_WINDS"},"data":[0,0,0,1.3336,1.3336,1.3348,1.3348,1.3365,1.3365,0,0,0,0,0,0,0,0,0,0,0,1.3332,1.3333,1.3336,1.3336,1.3348,1.3348,1.3365,1.3365,0,0,0,0,0,0,0,0,0,0,0,1.3332,1.3332,1.3333,1.3336,1.3348,1.3348,1.3365,1.3355,0,0,0,0,0,0,0,0,0,0,1.3343,1.334,1.3332,1.3333,1.3336,1.3348,1.3348,1.3355,1.3356,1.3359,0,1.3363,0,1.3364,1.3366,1.3366,0,0,0,1.3336,1.3339,1.3343,1.3333,1.3336,1.3348,1.3343,1.3355,1.3357,1.3361,1.3363,1.3364,1.3364,1.3366,1.3366,1.3389,1.3389,0,0,1.3335,1.3335,1.3342,1.3343,1.3342,1.3342,1.3343,1.3356,1.3358,1.3363,1.3364,1.3365,1.3366,1.3366,1.3389,1.3389,0,0,0,1.3333,1.3334,1.3337,1.3343,1.3345,1.3343,1.3344,1.3358,1.3359,1.3364,1.3365,1.3366,1.3367,1.3389,1.3389,1.3395,0,0,0,1.3333,1.3333,1.3337,1.3337,1.3345,1.3352,1.3345,1.3358,1.3359,1.3365,1.3366,1.3367,1.3389,1.3389,1.3395,1.3398,0,0,0,1.3331,1.3333,1.3335,1.3337,1.3342,1.3351,1.3353,1.3358,1.336,1.3366,1.3367,1.3388,1.3389,1.3394,1.3398,1.3405,0,0,0,1.333,1.334,1.3335,1.3347,1.3342,1.3355,1.3353,1.3362,1.3369,1.3367,1.3389,1.3389,1.3394,1.3397,1.3404,1.3411,1.3414,0,0,1.3343,1.3342,1.3349,1.3344,1.3358,1.3353,1.3368,1.3374,1.3374,1.3384,1.3384,1.3395,1.3398,1.3405,1.3428,1.343,0,0,0,1.3353,1.3358,1.3361,1.3367,1.3372,1.3377,1.338,1.3382,1.339,1.3379,1.3399,1.3401,1.3405,1.3408,1.341,1.3414,1.339,1.339,1.339,1.3371,1.3371,1.3383,1.3385,1.3391,1.3394,1.3399,1.3403,1.3401,1.3406,1.3409,1.3423,1.3427,1.3428,1.3432,1.3412,1.3412,1.3412,1.3412,1.339,1.3398,1.3396,1.3406,1.3406,1.3415,1.3419,1.3418,1.3426,1.342,1.3424,1.3418,1.343,1.3434,1.3412,1.3412,1.3412,1.3412,1.3412,1.3403,1.3407,1.3409,1.3418,1.3425,1.3426,1.3435,1.3434,1.3434,1.3438,1.3441,1.3441,1.3442,1.3439,1.3439,1.3439,1.3439,1.3439,1.3439,1.3416,1.3418,1.3425,1.3431,1.3435,1.344,1.3444,1.3448,1.3452,1.3451,1.3451,1.345,1.3431,1.3427,1.344,1.344,1.344,1.344,1.344,1.3437,1.3432,1.3443,1.3447,1.3454,1.3461,1.346,1.3468,1.3471,1.3476,1.3473,1.3459,1.3458,1.3457,1.3453,1.3472,1.3472,1.3472,1.3472,1.3448,1.3447,1.3459,1.3465,1.3472,1.3472,1.3485,1.3488,1.349,1.3492,1.3489,1.3484,1.3482,1.3482,1.348,1.3477,1.3502,1.3502,1.3502,1.3461,1.3461,1.3472,1.3474,1.348,1.3485,1.3497,1.3504,1.3505,1.3503,1.3493,1.3492,1.3484,1.3482,1.348,1.3477,1.3471,0,0]}]]